Temperature
6 6 6 7 7 8 8 8 9 9 10 10 10 10 10 11 11 11 11 12 12 12 13 13 13 13 13 13 13 13 13 13 13 13 13 13 13 13 13 13 13 13 13 12
5 6 6 7 8 8 8 8 8 9 10 10 9 10 10 10 10 11 11 11 12 12 12 12 13 13 13 13 13 12 12 12 12 12 13 12 12 12 12 12 12 12 12 12
5 6 7 8 7 8 8 8 8 8 9 9 9 9 9 10 11 11 11 11 11 11 12 12 12 12 12 12 12 12 12 12 12 12 12 12 12 11 11 11 12 12 12 12
5 6 7 7 7 7 7 8 9 9 8 7 8 7 8 9 9 9 9 10 10 11 11 11 12 12 12 12 12 12 12 12 12 11 12 12 11 11 11 11 11 11 11 11
5 6 6 7 7 8 7 8 8 8 7 7 7 7 7 8 8 8 8 9 10 10 11 11 11 11 11 11 11 11 11 11 11 11 11 11 11 11 11 11 11 11 11 10
5 6 6 6 7 8 8 8 7 7 6 6 7 6 7 7 8 8 7 8 9 9 10 10 10 10 11 11 11 11 10 11 11 11 11 10 11 11 10 10 10 10 10 10
4 5 6 6 6 7 7 6 6 6 5 6 7 7 7 6 7 7 7 8 8 9 9 9 10 10 10 10 10 10 10 10 10 10 10 10 10 10 10 10 10 10 10 10
3 4 5 6 6 6 6 6 5 5 5 5 6 6 6 6 6 7 7 7 8 8 8 9 9 9 9 9 9 9 9 9 9 9 9 9 9 9 9 9 9 9 9 9
3 3 4 5 6 6 5 5 5 4 4 5 5 5 5 6 5 5 6 6 6 7 8 8 8 9 9 9 9 9 9 9 8 9 9 8 8 8 8 9 8 8 8 8
2 2 3 4 5 5 5 5 4 4 5 5 5 5 5 5 4 4 4 4 5 6 7 7 7 8 8 8 8 8 8 8 8 8 8 8 8 8 8 8 8 8 8 8
2 2 2 3 4 4 4 5 4 4 4 4 5 5 4 4 4 4 4 4 5 5 6 6 7 7 7 7 8 8 8 8 7 7 7 7 7 7 7 7 7 7 7 7
1 1 1 2 3 4 4 4 4 4 3 3 3 4 4 3 4 3 3 4 4 5 5 6 6 6 7 7 7 7 7 7 7 7 7 7 7 7 7 7 7 7 7 6
1 1 1 2 2 3 3 3 3 3 2 2 3 3 3 3 3 3 3 3 4 4 4 5 5 5 6 6 6 6 6 6 6 6 6 6 6 6 6 6 6 6 6 6
1 -0 1 1 2 1 2 2 3 2 2 2 2 2 3 2 2 2 2 3 3 3 4 4 4 5 5 5 5 5 5 6 5 5 5 6 6 6 6 6 6 6 6 5
-1 -1 -0 0 1 1 2 2 2 2 2 2 2 2 2 2 2 2 2 2 2 3 3 3 3 4 4 4 5 5 5 5 5 5 5 5 5 5 5 5 5 5 5 5
-2 -1 -1 0 1 1 1 2 2 2 2 1 1 1 1 2 1 1 1 1 2 2 2 2 3 3 3 4 4 4 4 4 4 4 4 4 4 4 4 4 4 4 4 4
-3 -2 -1 -1 0 1 0 0 1 1 1 1 1 1 1 0 0 0 1 1 1 1 2 2 2 2 3 3 3 3 3 3 3 3 3 3 4 4 4 4 4 4 4 4
-3 -3 -3 -2 -1 -0 -0 -1 -0 0 -0 -0 0 -0 -0 -0 0 0 0 0 0 1 1 1 1 2 2 2 2 2 2 2 2 2 3 3 3 3 3 3 3 3 3 3
-3 -3 -3 -3 -2 -1 -1 -1 -2 -1 -1 -1 -1 -1 -1 -1 -1 -1 -0 -0 -0 0 0 1 1 1 1 1 2 2 2 2 2 2 2 2 2 2 2 2 2 2 2 2
-3 -3 -3 -3 -2 -2 -2 -2 -2 -1 -2 -2 -1 -2 -2 -1 -2 -2 -1 -1 -0 -0 -0 0 0 1 1 1 1 1 1 1 1 1 1 1 1 2 2 2 2 1 2 1
-4 -4 -4 -4 -4 -3 -3 -3 -2 -1 -2 -2 -1 -1 -2 -2 -2 -1 -1 -1 -1 -1 -1 -0 0 0 0 0 0 0 0 0 0 0 0 1 1 1 1 1 1 1 1 1
-5 -5 -5 -5 -4 -3 -4 -3 -3 -3 -2 -2 -2 -2 -2 -2 -2 -2 -2 -2 -1 -1 -1 -1 -0 -0 -0 -0 -0 -0 -1 -0 -1 -0 -0 -0 0 0 0 -0 -0 -0 -0 -0
-6 -6 -6 -5 -4 -4 -4 -3 -3 -2 -3 -2 -2 -2 -2 -3 -3 -3 -3 -2 -2 -2 -1 -1 -1 -1 -1 -1 -1 -1 -1 -1 -1 -1 -1 -1 -1 -1 -1 -1 -1 -1 -1 -1
-6 -6 -6 -6 -5 -5 -4 -3 -3 -3 -3 -3 -3 -3 -3 -3 -3 -3 -3 -3 -2 -2 -2 -2 -2 -2 -2 -2 -2 -2 -2 -2 -2 -1 -1 -1 -1 -1 -1 -1 -1 -1 -1 -1
-7 -7 -6 -6 -6 -5 -4 -4 -3 -3 -3 -3 -3 -3 -3 -3 -3 -3 -3 -3 -3 -3 -3 -2 -2 -2 -2 -2 -2 -2 -2 -2 -2 -2 -2 -2 -2 -2 -2 -2 -2 -2 -2 -2
-7 -6 -6 -6 -5 -5 -5 -4 -3 -4 -4 -4 -4 -4 -4 -3 -4 -4 -4 -3 -3 -3 -3 -3 -3 -3 -3 -3 -3 -3 -3 -3 -3 -3 -3 -3 -3 -3 -3 -3 -3 -3 -3 -3
Wind_Speed
3 4 7 10 10 6 6 6 6 6 4 4 7 6 5 4 5 7 7 7 7 7 5 5 6 7 7 7 7 8 8 7 7 6 5 5 4 3 3 5 7 8 8 8
3 7 8 6 7 6 5 7 5 2 3 4 5 6 5 5 7 9 10 9 8 6 5 5 5 6 7 7 7 8 8 8 7 6 4 3 4 3 3 4 5 7 8 7
6 4 5 4 5 8 7 9 7 5 1 1 3 4 5 4 4 5 6 7 8 9 8 6 6 6 6 7 7 7 7 7 7 6 5 5 4 3 2 2 2 3 6 7
4 3 5 5 6 7 7 7 7 7 4 3 5 5 7 6 5 6 6 5 6 6 6 6 6 6 6 6 6 6 6 6 6 7 7 8 5 4 3 3 3 3 5 5
3 4 6 7 7 6 4 5 6 6 4 2 3 4 6 5 8 9 7 7 6 6 7 6 6 6 5 4 5 5 6 6 6 6 8 7 5 3 3 3 4 3 2 4
1 1 3 3 3 5 4 5 4 3 2 5 7 6 6 7 10 9 7 6 6 5 5 4 4 5 4 4 4 5 6 5 6 6 6 7 7 6 6 5 4 3 2 2
1 1 1 1 2 2 5 7 3 2 4 6 6 5 6 5 5 9 10 8 6 5 5 5 5 5 5 5 5 5 6 5 5 6 6 5 6 7 7 6 5 4 2 2
2 2 2 2 4 5 7 7 6 5 6 2 4 6 5 3 2 4 6 6 5 5 4 5 5 5 5 5 5 5 6 5 5 5 5 5 5 4 4 4 4 4 3 3
2 2 2 1 1 5 5 4 4 4 2 2 4 2 3 1 2 3 4 5 5 4 4 4 4 4 4 5 5 6 6 5 5 5 5 4 4 4 4 4 4 3 2 2
1 1 2 3 2 1 3 5 4 4 4 3 3 4 4 4 3 3 3 4 3 3 3 3 3 4 4 4 4 4 5 5 4 4 5 4 4 4 4 4 4 4 3 3
2 2 1 2 1 3 2 2 3 3 3 4 4 4 2 5 5 5 3 3 4 3 3 3 2 3 4 4 4 4 4 4 4 4 4 4 4 4 4 4 4 3 3 3
1 2 1 2 3 1 2 3 4 5 3 2 3 4 3 2 3 4 3 2 2 3 3 3 3 4 4 4 4 3 3 3 3 4 4 4 4 4 4 4 3 3 3 3
2 3 2 3 3 2 1 2 3 4 3 3 3 4 2 3 3 3 3 2 2 3 3 3 3 4 4 4 3 3 3 3 3 4 4 4 3 3 3 3 3 3 3 2
3 2 4 7 5 2 2 2 3 4 3 3 5 5 3 0 1 1 1 1 2 3 3 3 3 3 3 3 3 3 3 3 3 4 4 4 3 3 2 3 3 3 3 3
3 1 0 2 3 2 2 3 2 3 5 5 5 6 6 4 3 3 2 2 2 3 3 3 2 2 3 3 3 3 3 3 3 4 4 3 2 3 3 2 2 2 2 2
3 1 1 2 1 1 2 4 2 3 3 4 3 6 4 2 1 2 2 3 2 2 2 2 2 3 3 3 2 3 3 2 3 4 3 3 3 3 3 2 2 2 2 1
1 2 2 2 3 3 3 4 3 2 2 4 6 6 4 2 3 3 3 2 2 2 2 2 2 2 2 2 2 3 2 3 3 3 3 2 3 3 2 2 2 2 1 1
2 2 1 0 3 2 4 2 1 1 1 1 2 2 3 3 2 2 2 2 1 1 1 1 2 2 2 2 2 2 3 3 3 3 2 2 2 2 2 2 2 1 1 1
2 3 2 1 0 3 4 3 2 1 2 2 2 2 1 2 3 1 0 1 1 1 1 1 1 2 2 2 2 3 3 3 3 2 2 2 2 2 2 1 1 1 1 1
3 3 3 2 2 4 4 5 5 0 2 3 1 3 3 1 1 3 1 0 0 0 1 1 2 3 3 2 3 4 3 3 2 1 1 2 2 2 2 1 1 1 1 1
2 2 1 2 2 4 5 7 3 3 5 4 2 4 3 2 4 3 0 1 1 1 1 2 3 3 2 2 4 4 3 1 0 1 2 2 2 2 1 1 1 0 1 1
1 1 1 2 2 5 4 1 1 4 3 1 1 2 2 1 1 1 1 1 1 2 2 3 3 2 2 2 4 3 1 0 1 2 2 2 2 2 1 1 1 1 1 1
2 3 3 4 5 4 2 2 3 2 2 2 1 1 2 2 1 1 1 1 1 1 2 2 3 3 2 2 3 3 1 1 2 2 2 2 2 2 1 1 1 0 0 0
3 1 2 2 4 4 4 3 3 2 2 2 1 1 2 2 2 1 1 1 1 1 1 2 3 3 2 2 2 1 1 2 2 2 1 1 1 1 1 1 0 0 1 1
4 1 1 3 5 4 4 4 4 3 2 1 1 0 1 2 2 2 1 1 1 1 1 2 2 2 1 1 2 1 1 2 2 2 1 1 1 1 1 1 1 1 2 2
3 4 4 6 5 4 5 5 3 2 2 1 0 0 0 2 2 2 2 1 1 1 1 2 2 2 1 1 1 1 1 2 3 2 1 0 0 0 0 1 2 3 2 4
Wind_Direction
175 160 195 202 197 194 179 177 184 205 193 172 192 206 223 209 169 172 181 180 179 184 182 159 152 145 139 142 145 149 150 149 143 142 144 143 150 150 138 136 140 140 139 138
147 213 211 200 199 196 189 175 183 210 198 185 189 222 232 213 199 188 183 185 184 175 162 155 149 146 149 153 157 157 159 157 157 159 155 146 139 137 133 133 135 143 142 142
190 215 177 172 192 194 202 187 182 180 158 97 135 252 244 234 212 198 189 182 176 173 168 165 157 156 153 159 165 166 165 162 159 147 128 113 92 86 99 131 147 145 147 146
213 224 170 176 203 187 209 194 180 173 157 209 171 214 241 216 212 209 204 186 178 176 169 164 160 159 164 170 167 164 160 159 156 148 148 150 154 161 180 171 159 139 144 145
212 192 177 193 209 188 193 178 177 174 168 190 188 188 250 201 207 213 206 197 186 177 170 167 165 166 164 161 161 161 154 153 153 153 156 156 153 149 139 138 140 145 136 142
222 210 181 206 210 183 131 109 94 90 128 211 206 187 240 211 207 197 197 193 185 173 164 160 152 138 128 125 136 148 152 152 154 155 157 160 156 149 147 153 158 160 155 135
19 338 308 143 143 135 130 131 136 175 203 223 182 188 239 238 209 192 189 191 184 168 158 150 143 141 139 137 140 146 153 152 152 152 156 162 161 160 165 167 168 162 161 168
130 234 240 206 188 181 185 163 168 179 190 218 176 205 243 264 216 165 173 170 160 161 160 155 157 153 153 150 149 151 154 155 156 154 157 153 155 159 165 168 166 170 177 179
155 233 291 277 195 153 165 186 164 131 119 147 219 255 299 354 83 114 142 143 151 162 160 156 150 150 151 155 159 158 154 151 160 161 151 149 156 157 157 159 157 161 164 156
131 195 285 305 71 50 153 152 125 141 157 193 219 219 209 197 185 145 135 151 151 132 133 144 150 151 146 150 147 142 142 150 154 155 157 156 161 162 155 153 162 161 159 145
72 135 319 17 160 181 130 144 135 136 158 165 194 238 223 201 185 169 164 157 146 139 144 152 148 137 126 117 123 127 131 127 131 141 144 143 153 156 152 156 163 160 153 151
44 104 181 265 286 256 153 163 146 154 192 175 175 250 312 202 156 146 145 123 122 125 132 130 127 117 109 113 121 128 127 130 141 140 132 135 142 148 150 151 152 146 150 152
78 108 82 356 340 5 86 174 154 135 134 162 174 248 341 71 84 109 123 114 108 108 103 103 107 117 121 122 122 123 124 124 124 123 120 120 126 140 149 154 147 144 146 145
64 112 176 198 221 206 242 245 175 140 163 191 214 223 263 201 143 141 126 134 124 124 119 118 120 122 121 118 116 113 105 108 114 119 119 119 125 133 142 143 145 147 151 159
62 89 211 251 252 223 244 259 210 190 190 192 214 217 227 223 210 194 175 159 137 131 124 128 132 126 114 107 103 103 102 102 110 114 115 117 107 99 99 107 119 123 132 160
42 94 45 336 2 106 318 312 261 230 203 194 210 249 234 225 162 169 181 177 178 177 166 150 136 131 125 125 119 107 104 105 110 115 117 116 109 101 96 100 103 99 94 96
24 76 51 297 327 21 307 288 247 228 228 188 217 233 180 170 199 203 199 187 196 193 163 156 154 153 152 149 132 126 126 109 105 110 111 116 115 110 105 101 89 79 65 61
147 97 108 337 34 223 250 325 300 191 311 275 209 188 176 194 230 195 166 167 184 192 171 161 153 138 125 114 108 107 105 107 108 108 106 103 109 112 106 101 93 68 47 30
174 146 122 127 172 277 304 334 351 261 300 322 185 188 152 89 50 18 357 129 177 210 203 177 154 135 113 113 123 118 110 107 107 110 117 117 116 110 103 95 72 45 41 8
53 92 123 126 156 234 264 301 311 227 285 308 191 190 191 119 216 247 272 41 74 68 85 112 100 98 98 103 119 114 112 105 106 116 118 111 114 114 106 91 34 13 25 339
26 34 103 164 212 266 288 301 338 153 251 293 226 205 204 215 224 224 247 15 102 93 79 105 103 101 110 115 116 114 107 110 118 108 104 88 86 97 104 86 43 38 26 8
166 152 186 151 188 253 307 17 171 240 288 298 243 205 187 198 199 182 143 125 106 93 93 112 111 97 88 109 118 116 113 87 81 96 98 82 73 71 65 82 56 48 42 356
202 203 199 196 215 250 259 226 257 256 273 290 261 241 166 167 194 203 162 140 117 109 112 121 121 102 72 84 119 130 128 90 91 89 88 81 70 60 60 86 96 72 55 283
291 257 190 256 271 280 293 303 317 319 273 279 258 223 163 180 200 194 172 144 105 84 95 111 110 102 74 61 79 111 108 103 105 100 96 96 84 52 29 9 339 281 271 280
256 246 219 261 282 303 301 297 293 299 307 323 341 195 195 170 182 182 174 167 146 104 75 105 118 114 98 82 75 58 101 120 120 121 122 109 84 77 19 354 325 303 276 265
239 211 213 241 243 239 269 288 296 297 297 271 194 327 215 174 184 171 163 166 141 117 94 99 107 113 110 97 77 32 106 138 139 137 143 177 196 249 339 353 346 348 327 327
Height
1469 1473 1474 1473 1475 1477 1479 1481 1484 1484 1482 1486 1488 1489 1489 1489 1490 1492 1494 1496 1498 1500 1503 1506 1509 1511 1514 1516 1519 1521 1523 1526 1528 1530 1532 1534 1536 1539 1541 1542 1544 1546 1547 1548
1471 1472 1471 1472 1473 1475 1477 1481 1484 1484 1482 1485 1489 1489 1488 1488 1488 1489 1491 1493 1495 1498 1501 1504 1506 1509 1511 1514 1516 1519 1521 1523 1526 1528 1531 1533 1534 1536 1538 1540 1542 1543 1544 1546
1469 1468 1468 1470 1473 1475 1477 1480 1482 1484 1484 1485 1489 1493 1490 1487 1487 1488 1489 1491 1493 1495 1498 1500 1503 1506 1509 1511 1514 1516 1518 1521 1523 1526 1528 1530 1532 1534 1536 1537 1539 1541 1542 1543
1469 1467 1468 1470 1472 1473 1477 1475 1478 1482 1488 1494 1492 1498 1490 1487 1487 1487 1488 1489 1491 1493 1496 1498 1501 1503 1506 1509 1511 1514 1516 1519 1521 1523 1525 1527 1529 1530 1532 1535 1537 1539 1540 1541
1468 1466 1467 1469 1470 1471 1473 1473 1477 1481 1489 1494 1493 1498 1491 1485 1486 1486 1486 1487 1488 1491 1493 1495 1498 1501 1504 1506 1509 1512 1514 1516 1519 1521 1523 1525 1527 1529 1531 1533 1534 1536 1537 1539
1467 1466 1467 1468 1468 1470 1472 1476 1480 1485 1490 1495 1490 1494 1490 1485 1480 1482 1484 1485 1486 1489 1491 1494 1496 1499 1501 1504 1507 1509 1511 1514 1516 1518 1521 1523 1525 1527 1528 1530 1531 1533 1534 1536
1470 1469 1468 1468 1470 1471 1474 1480 1490 1493 1495 1491 1486 1489 1486 1479 1477 1478 1480 1482 1484 1487 1489 1491 1493 1496 1499 1501 1504 1506 1508 1511 1513 1516 1518 1520 1522 1524 1526 1527 1529 1530 1531 1533
1475 1475 1470 1469 1469 1471 1474 1478 1486 1490 1492 1492 1486 1486 1484 1478 1476 1476 1478 1480 1483 1485 1487 1489 1491 1494 1496 1499 1501 1504 1506 1508 1511 1513 1515 1517 1519 1521 1523 1525 1526 1527 1529 1530
1476 1476 1470 1468 1468 1470 1474 1478 1479 1487 1492 1493 1490 1487 1483 1478 1477 1477 1478 1480 1481 1483 1485 1487 1490 1492 1494 1497 1499 1501 1503 1506 1508 1510 1512 1514 1516 1519 1520 1522 1524 1525 1526 1527
1475 1477 1472 1469 1468 1470 1471 1474 1480 1485 1489 1489 1489 1486 1483 1481 1480 1479 1479 1479 1480 1482 1484 1486 1488 1490 1492 1495 1497 1499 1502 1504 1506 1508 1510 1512 1514 1516 1518 1519 1520 1522 1523 1524
1475 1479 1477 1473 1472 1472 1474 1475 1478 1483 1485 1488 1488 1487 1478 1478 1478 1479 1479 1479 1480 1481 1483 1484 1486 1489 1491 1493 1495 1498 1500 1502 1504 1506 1507 1509 1512 1513 1515 1516 1518 1519 1520 1521
1476 1479 1481 1478 1474 1472 1472 1474 1477 1483 1488 1489 1489 1488 1477 1477 1477 1479 1480 1480 1481 1482 1483 1484 1486 1488 1490 1492 1494 1496 1498 1500 1502 1504 1505 1507 1509 1511 1512 1514 1515 1516 1517 1518
1476 1481 1484 1481 1481 1477 1475 1475 1476 1479 1486 1489 1488 1487 1478 1477 1478 1479 1480 1481 1481 1482 1483 1484 1485 1487 1489 1491 1493 1495 1496 1498 1500 1502 1503 1505 1507 1508 1510 1511 1512 1513 1514 1515
1476 1482 1483 1482 1478 1478 1478 1475 1475 1478 1485 1488 1485 1483 1480 1479 1479 1480 1481 1481 1482 1482 1482 1483 1484 1486 1488 1490 1491 1493 1494 1496 1498 1500 1501 1503 1505 1506 1507 1509 1510 1511 1511 1512
1479 1484 1482 1479 1476 1477 1477 1475 1474 1477 1479 1482 1480 1480 1479 1479 1479 1480 1481 1481 1481 1482 1482 1483 1484 1485 1486 1488 1490 1491 1493 1494 1496 1498 1499 1501 1502 1504 1505 1506 1507 1508 1509 1509
1482 1485 1483 1481 1476 1475 1476 1475 1474 1475 1476 1478 1479 1480 1478 1479 1480 1480 1481 1481 1481 1481 1482 1482 1483 1484 1485 1486 1488 1489 1491 1492 1494 1495 1497 1499 1500 1501 1502 1503 1504 1505 1506 1506
1486 1487 1487 1485 1480 1477 1482 1479 1477 1476 1475 1476 1477 1477 1477 1479 1479 1480 1480 1480 1480 1481 1481 1481 1482 1483 1484 1485 1487 1488 1489 1491 1492 1494 1495 1496 1498 1499 1500 1501 1501 1502 1502 1502
1487 1488 1491 1490 1487 1488 1484 1480 1477 1476 1476 1476 1474 1475 1476 1477 1478 1479 1479 1479 1479 1480 1480 1480 1481 1482 1483 1484 1486 1487 1488 1489 1490 1491 1493 1494 1495 1496 1497 1498 1498 1499 1499 1499
1484 1487 1493 1494 1495 1488 1483 1481 1481 1480 1479 1477 1476 1475 1476 1477 1477 1478 1479 1478 1479 1479 1480 1480 1480 1481 1482 1483 1484 1485 1486 1487 1488 1489 1490 1491 1492 1493 1494 1495 1495 1496 1496 1496
1485 1487 1493 1496 1495 1491 1485 1481 1479 1481 1481 1476 1475 1475 1475 1476 1479 1478 1477 1478 1478 1478 1478 1479 1479 1480 1480 1482 1483 1484 1484 1485 1486 1487 1489 1489 1490 1491 1492 1492 1493 1493 1493 1493
1493 1494 1496 1497 1498 1490 1485 1481 1479 1484 1481 1476 1474 1474 1474 1474 1475 1475 1475 1475 1476 1476 1477 1477 1478 1478 1479 1480 1481 1482 1483 1484 1485 1486 1486 1487 1488 1489 1489 1490 1490 1490 1490 1490
1498 1498 1500 1498 1498 1493 1483 1481 1482 1480 1476 1474 1473 1472 1472 1472 1473 1473 1474 1474 1474 1475 1476 1476 1477 1477 1478 1479 1480 1480 1481 1482 1483 1484 1484 1485 1486 1487 1487 1487 1487 1487 1487 1487
1496 1495 1495 1494 1491 1484 1481 1479 1478 1476 1475 1473 1472 1472 1472 1472 1472 1472 1473 1473 1474 1474 1475 1475 1476 1476 1477 1478 1478 1478 1479 1480 1481 1482 1482 1483 1484 1484 1485 1485 1485 1485 1485 1484
1492 1490 1490 1489 1484 1481 1480 1478 1476 1475 1473 1472 1472 1471 1471 1471 1471 1471 1472 1472 1473 1473 1474 1474 1474 1475 1475 1476 1477 1477 1478 1479 1479 1480 1480 1481 1482 1482 1482 1483 1483 1482 1482 1482
1491 1489 1488 1486 1482 1479 1477 1476 1475 1473 1472 1471 1471 1470 1470 1470 1470 1470 1471 1471 1471 1472 1472 1473 1473 1473 1474 1475 1475 1476 1476 1477 1477 1478 1478 1479 1479 1480 1480 1480 1480 1480 1480 1479
1485 1486 1486 1482 1479 1479 1476 1475 1474 1472 1471 1470 1469 1469 1469 1469 1469 1469 1470 1470 1470 1471 1471 1472 1472 1472 1473 1473 1474 1474 1475 1475 1475 1476 1476 1477 1477 1477 1477 1477 1478 1477 1477 1477